Regional Weather Roundup
Issued by NWS

Home | Current Version | Previous Version | Graphics & Text | Print | Product List | Glossary On
Versions: 1 2 3 4 5 6 7 8 9 10 11 12 13 14 15 16 17 18 19 20 21 22 23 24 25 26 27 28 29 30 31 32 33 34 35 36 37 38 39 40 41 42 43 44 45 46 47 48 49 50
436
ASUS43 KTOP 210859
RWRKS

WEATHER ROUNDUP FOR KANSAS
NATIONAL WEATHER SERVICE GOODLAND KS
300 AM CST TUE NOV 21 2017

NOTE:  "FAIR" INDICATES FEW OR NO CLOUDS BELOW 12,000 FEET WITH NO
SIGNIFICANT WEATHER AND/OR OBSTRUCTIONS TO VISIBILITY.

KSZ001>006-013>018-027>032-041>047-211000-
NORTHWEST KANSAS

CITY           SKY/WX    TMP DP  RH WIND       PRES   REMARKS
GOODLAND       CLOUDY    43  22  43 SW6       29.87R
HAYS           MOCLDY    49  25  39 NW7       29.78R
HILL CITY      CLOUDY    47  25  42 N15       29.82R
RUSSELL        CLOUDY    47  26  44 NW8       29.76R
$$

KSZ061>065-074>080-084>089-211000-
SOUTHWEST KANSAS

CITY           SKY/WX    TMP DP  RH WIND       PRES   REMARKS
DODGE CITY     PTCLDY    44  21  40 NW9       29.80R
GARDEN CITY    CLOUDY    40  19  43 NW10      29.83R WCI  33
GREAT BEND     MOCLDY    38  26  62 W8        29.77R
LIBERAL        CLOUDY    39  19  44 N8        29.82R
$$

KSZ066>073-081>083-090>101-211000-
SOUTHEAST KANSAS

CITY           SKY/WX    TMP DP  RH WIND       PRES   REMARKS
CHANUTE        CLOUDY    46  32  58 S10       29.80F
COFFEYVILLE    PTCLDY    48  33  56 S7        29.82S
HUTCHINSON     PTCLDY    42  30  62 SW5       29.75F
MEDICINE LODGE   N/A     38  29  70 S6        29.76F
NEWTON         PTCLDY    44  30  57 SW12      29.76S
PARSONS        CLOUDY    46  33  60 S6        29.82S
WICHITA INTL   CLOUDY    38  31  76 S9        29.77S
WICHITA JABRA  CLOUDY    46  31  55 S10       29.76S
WICHITA MCCONL PTCLDY    42  29  60 SW9       29.77S
WINFIELD       CLOUDY    41  31  67 S3        29.80S
$$

KSZ007>012-019>026-033>040-048>060-102>105-211000-
NORTHEAST KANSAS

CITY           SKY/WX    TMP DP  RH WIND       PRES   REMARKS
CONCORDIA      MOCLDY    46  27  47 NW13      29.75R
EMPORIA        CLOUDY    44  30  57 S10       29.75S
LAWRENCE       PTCLDY    49  31  49 SW5       29.77R
MANHATTAN      CLOUDY    48  31  51 SW5       29.75R
OLATHE IND     MOCLDY    47  31  53 SW9       29.78R
OLATHE EXE     MOCLDY    49  31  49 SW13G18   29.77R
SALINA         PTCLDY    49  28  44 SW8       29.76R
TOPEKA BILLARD CLOUDY    47  32  56 S5        29.75R
TOPEKA FORBES  MOCLDY    45  31  58 S6        29.76R
$$




USA.gov is the U.S. government's official web portal to all federal, state and local government web resources and services.